Albany, Nova Scotia

12:58 PM AST on January 21, 2017 (GMT -0400)
Greenwood

Weather History for CYZX - June, 2013

Change the Weather History Date:

Sunday, June 30, 2013

  Actual Average Record
Temperature  
Mean Temperature 72 °F -  
Max Temperature 78 °F 78 °F 90 °F (2012)
Min Temperature 67 °F 55 °F 44 °F (2004)
Cooling Degree Days 8    
Growing Degree Days 22 (Base 50)    
Moisture  
Dew Point 67 °F    
Average Humidity 84    
Maximum Humidity 94    
Minimum Humidity 64    
Precipitation  
Precipitation 0.01 in 0.12 in - ()
Sea Level Pressure  
Sea Level Pressure 29.87 in    
Wind  
Wind Speed 9 mph ()    
Max Wind Speed 17 mph    
Max Gust Speed 23 mph    
Visibility 13.1 miles    
Events Rain    
Averages and records for this station are not official NWS values.
T = Trace of Precipitation, MM = Missing Value Source: Averaged Metar Reports

Daily Weather History Graph

Daily Weather History Graph

Search for Another Location

Airport or City:

Trip Planner

Search our weather history database for the weather conditions in past years. The results will help you decide how hot, cold, wet, or windy it might be!

Date:

Astronomy

Jun. 30, 2013 Rise Set
Actual Time 5:36 AM ADT 9:10 PM ADT
Civil Twilight 4:59 AM ADT 9:47 PM ADT
Nautical Twilight 4:10 AM ADT 10:36 PM ADT
Astronomical Twilight 3:05 AM ADT 11:40 PM ADT
Moon 12:46 AM ADT (6/30) 2:08 PM ADT (6/30)
Length of Visible Light 16h 47m
Length of Day
15h 33m
Last Quarter, 46% of the Moon is Illuminated
Jun 30
Last Quarter
Jul 8
New
Jul 16
First Quarter
Jul 22
Full
Jul 29
Last Quarter

Hourly Weather History & Observations

Time (ADT) Temp. Dew Point Humidity Pressure Visibility Wind Dir Wind Speed Gust Speed Precip Events Conditions
12:00 AM 69.8 °F 66.2 °F 88% 29.79 in 6.0 mi SSW 11.5 mph 18.4 mph N/A   Overcast
12:07 AM - - N/A% - 6.0 mi SW 11.5 mph - N/A Rain Light Rain Showers
1:00 AM 69.8 °F 66.2 °F 88% 29.79 in 12.0 mi SSW 9.2 mph 17.3 mph N/A Rain Light Rain Showers
2:00 AM 69.8 °F 66.2 °F 88% 29.80 in 12.0 mi SW 12.7 mph - N/A Rain Light Rain Showers
2:22 AM - - N/A% - 4.0 mi SSW 8.1 mph - N/A Rain Heavy Rain Showers
2:37 AM - - N/A% - 10.0 mi SW 6.9 mph - N/A Rain Light Rain Showers
3:00 AM 68 °F 67 °F 94% 29.80 in 12 mi WSW 5.8 mph - - Rain Light Rain Showers
3:00 AM 68.0 °F 66.2 °F 94% 29.80 in 12.0 mi WSW 5.8 mph - N/A Rain Light Rain Showers
4:00 AM 68.0 °F 66.2 °F 94% 29.80 in 15.0 mi SSW 9.2 mph - N/A Rain Light Rain Showers
5:00 AM 68.0 °F 66.2 °F 94% 29.81 in 10.0 mi SSW 9.2 mph - N/A Rain Light Rain Showers
5:35 AM - - N/A% - 12.0 mi SW 6.9 mph - N/A   Light Drizzle
6:00 AM 68.0 °F 66.2 °F 94% 29.82 in 10.0 mi SSW 8.1 mph - N/A   Light Drizzle
7:00 AM 68.0 °F 66.2 °F 94% 29.82 in 10.0 mi SSW 6.9 mph - N/A   Light Drizzle
7:12 AM - - N/A% - 12.0 mi SSW 8.1 mph - N/A   Overcast
8:00 AM 68.0 °F 66.2 °F 94% 29.84 in 15.0 mi SSW 11.5 mph - N/A   Overcast
9:00 AM 69 °F 66 °F 87% 29.86 in 15 mi SSW 10.4 mph - -   Partly Cloudy
9:00 AM 69.8 °F 66.2 °F 88% 29.85 in 15.0 mi SSW 11.5 mph - N/A   Overcast
10:00 AM 69.8 °F 66.2 °F 88% 29.87 in 15.0 mi SSW 10.4 mph - N/A   Overcast
11:00 AM 71.6 °F 68.0 °F 88% 29.87 in 15.0 mi SSW 12.7 mph - N/A   Overcast
11:37 AM - - N/A% - 15.0 mi SSW 12.7 mph - N/A   Mostly Cloudy
12:00 PM 75.2 °F 66.2 °F 73% 29.88 in 15.0 mi SSW 15.0 mph - N/A   Mostly Cloudy
1:00 PM 75.2 °F 66.2 °F 73% 29.88 in 15.0 mi SSW 11.5 mph - N/A   Overcast
2:00 PM 77.0 °F 68.0 °F 74% 29.88 in 15.0 mi SSW 12.7 mph 20.7 mph N/A   Overcast
3:00 PM 78 °F 68 °F 64% 29.89 in 15 mi SW 15.0 mph - -   Overcast
3:00 PM 78.8 °F 68.0 °F 69% 29.89 in 15.0 mi SSW 15.0 mph 20.7 mph N/A   Overcast
3:19 PM - - N/A% - 15.0 mi SW 17.3 mph - N/A   Overcast
4:00 PM 77.0 °F 68.0 °F 74% 29.90 in 15.0 mi SW 15.0 mph 23.0 mph N/A   Overcast
5:00 PM 78.8 °F 68.0 °F 69% 29.90 in 15.0 mi SW 11.5 mph - N/A   Overcast
6:00 PM 77.0 °F 68.0 °F 74% 29.90 in 15.0 mi SW 13.8 mph 20.7 mph N/A   Overcast
6:06 PM - - N/A% - 15.0 mi SW 15.0 mph 21.9 mph N/A   Overcast
7:00 PM 75.2 °F 68.0 °F 78% 29.92 in 15.0 mi SSW 8.1 mph 17.3 mph N/A   Mostly Cloudy
8:00 PM 73.4 °F 68.0 °F 83% 29.94 in 15.0 mi South 9.2 mph 17.3 mph N/A   Overcast
9:00 PM 72 °F 67 °F 80% 29.96 in 15 mi SSW 9.2 mph - -   Overcast
9:00 PM 71.6 °F 68.0 °F 88% 29.95 in 15.0 mi SSW 11.5 mph - N/A   Overcast
10:00 PM 71.6 °F 68.0 °F 88% 29.97 in 15.0 mi SSW 10.4 mph - N/A   Overcast
11:00 PM 69.8 °F 66.2 °F 88% 29.99 in 15.0 mi SW 9.2 mph - N/A   Overcast